DW9614 Weather Reports


Display with metric or nautical units.
time (UTC)temp
F
wind
direction
speed
MPH
gust
MPH
rain 1hr
in
rain 24hr
in
rain mn
in
humidity
%
barometer
mb
20260901093024 76 213 3.0 8.0 0.00 0.00 0.00 81 1014.1
20260901091524 76 213 3.0 8.0 0.00 0.00 0.00 80 1014.2
20260901090021 76 223 4.0 8.0 0.00 0.00 0.00 80 1014.3
20260901084518 77 206 5.0 8.0 0.00 0.00 0.00 79 1014.2
20260901083017 77 209 6.0 9.0 0.00 0.00 0.00 78 1014.2
20260901081526 77 210 5.0 11.0 0.00 0.00 0.00 78 1014.0
20260901080014 78 213 6.0 9.0 0.00 0.00 0.00 77 1014.0
20260901074513 78 202 5.0 10.0 0.00 0.00 0.00 76 1014.0
20260901073016 78 198 5.0 9.0 0.00 0.00 0.00 75 1014.0
20260901071511 78 223 6.0 10.0 0.00 0.00 0.00 75 1014.0
20260901070009 78 217 6.0 10.0 0.00 0.00 0.00 74 1014.1
20260901064510 78 213 6.0 11.0 0.00 0.00 0.00 73 1014.1
20260901063004 78 197 5.0 11.0 0.00 0.00 0.00 73 1014.1
20260901061503 78 215 6.0 10.0 0.00 0.00 0.00 73 1014.1
20260901060002 79 191 6.0 9.0 0.00 0.00 0.00 72 1014.1
20260901054601 79 212 5.0 7.0 0.00 0.00 0.00 72 1014.1
20260901053100 79 194 5.0 9.0 0.00 0.00 0.00 72 1014.2
20260901051600 79 213 4.0 8.0 0.00 0.00 0.00 72 1014.1
20260901050055 80 190 5.0 9.0 0.00 0.00 0.00 71 1014.1
20260901044557 81 212 6.0 8.0 0.00 0.00 0.00 69 1014.1
20260901043056 81 215 5.0 13.0 0.00 0.00 0.00 70 1014.2
20260901041553 81 202 5.0 9.0 0.00 0.00 0.00 71 1014.1
20260901040153 81 217 4.0 9.0 0.00 0.00 0.00 71 1014.0
20260901034552 81 213 4.0 7.0 0.00 0.00 0.00 71 1014.0
20260901031552 81 219 5.0 10.0 0.00 0.00 0.00 71 1014.1
20260901030051 82 211 6.0 9.0 0.00 0.00 0.00 71 1014.0
20260901024551 82 212 5.0 9.0 0.00 0.00 0.00 70 1014.0
20260901023049 82 204 3.0 7.0 0.00 0.00 0.00 70 1013.9
20260901021549 83 180 4.0 7.0 0.00 0.00 0.00 71 1013.8
20260901020049 83 198 3.0 8.0 0.00 0.00 0.00 71 1013.8
20260901014548 83 184 3.0 6.0 0.00 0.00 0.00 71 1013.7
20260901013106 83 188 3.0 6.0 0.00 0.00 0.00 72 1013.6
20260901011547 83 179 4.0 7.0 0.00 0.00 0.00 71 1013.4
20260901010047 84 182 4.0 7.0 0.00 0.00 0.00 70 1013.1
20260901004546 85 185 3.0 9.0 0.00 0.00 0.00 69 1012.8
20260901003045 85 186 4.0 10.0 0.00 0.00 0.00 68 1012.7
20260901001545 86 180 5.0 7.0 0.00 0.00 0.00 65 1012.7
20260901000045 88 196 5.0 8.0 0.00 0.00 0.00 62 1012.6
20260831234553 88 186 5.0 9.0 0.00 0.00 0.00 61 1012.6
20260831233042 89 171 5.0 10.0 0.00 0.00 0.00 60 1012.7
20260831231542 90 178 6.0 13.0 0.00 0.00 0.00 59 1012.7
20260831230042 90 225 6.0 12.0 0.00 0.00 0.00 58 1012.7
20260831224541 91 185 7.0 13.0 0.00 0.00 0.00 57 1012.8
20260831223042 92 223 6.0 11.0 0.00 0.00 0.00 55 1012.8
20260831221537 92 217 7.0 12.0 0.00 0.00 0.00 55 1013.0
20260831220036 92 211 6.0 14.0 0.00 0.00 0.00 55 1013.2
20260831214536 92 203 7.0 13.0 0.00 0.00 0.00 55 1013.2
20260831213034 93 169 7.0 14.0 0.00 0.00 0.00 55 1013.2
20260831211534 93 207 6.0 12.0 0.00 0.00 0.00 52 1013.2
20260831210033 93 179 6.0 13.0 0.00 0.00 0.00 52 1013.2
20260831204538 93 175 7.0 13.0 0.00 0.00 0.00 53 1013.4
20260831203029 93 215 8.0 15.0 0.00 0.00 0.00 52 1013.6
20260831200049 92 196 7.0 12.0 0.00 0.00 0.00 54 1013.9
20260831194527 93 217 7.0 13.0 0.00 0.00 0.00 53 1013.8
20260831193021 92 173 7.0 13.0 0.00 0.00 0.00 53 1014.0
20260831191521 92 175 7.0 16.0 0.00 0.00 0.00 53 1014.1
20260831190031 92 194 7.0 12.0 0.00 0.00 0.00 53 1014.3
20260831184518 92 209 9.0 13.0 0.00 0.00 0.00 53 1014.5
20260831183016 91 244 8.0 13.0 0.00 0.00 0.00 52 1014.8
20260831181523 91 234 7.0 12.0 0.00 0.00 0.00 55 1015.0
20260831180015 91 202 7.0 12.0 0.00 0.00 0.00 54 1015.2
20260831174513 91 223 7.0 12.0 0.00 0.00 0.00 53 1015.2
20260831173012 91 188 6.0 10.0 0.00 0.00 0.00 55 1015.2
20260831171510 90 184 5.0 11.0 0.00 0.00 0.00 57 1015.2
20260831170010 89 215 8.0 13.0 0.00 0.00 0.00 56 1015.4
20260831164516 88 212 4.0 12.0 0.00 0.00 0.00 56 1015.5
20260831163013 88 202 7.0 12.0 0.00 0.00 0.00 57 1015.7
20260831161507 87 207 6.0 10.0 0.00 0.00 0.00 56 1015.6
20260831160002 86 219 6.0 13.0 0.00 0.00 0.00 58 1015.6
20260831154501 86 191 5.0 13.0 0.00 0.00 0.00 58 1015.6
20260831153100 85 186 10.0 14.0 0.00 0.00 0.00 57 1015.7
20260831151557 84 220 7.0 13.0 0.00 0.00 0.00 60 1015.7
20260831150055 83 178 5.0 11.0 0.00 0.00 0.00 63 1015.6
20260831144552 82 213 6.0 10.0 0.00 0.00 0.00 64 1015.5
20260831143050 81 200 7.0 11.0 0.00 0.00 0.00 65 1015.5
20260831141552 80 213 3.0 10.0 0.00 0.00 0.00 67 1015.5
20260831140046 80 199 5.0 12.0 0.00 0.00 0.00 66 1015.5
20260831134547 78 211 6.0 12.0 0.00 0.00 0.00 69 1015.5
20260831133040 77 198 6.0 13.0 0.00 0.00 0.00 71 1015.5
20260831131538 76 209 5.0 10.0 0.00 0.00 0.00 72 1015.5
20260831130136 75 200 4.0 8.0 0.00 0.00 0.00 74 1015.4
20260831124535 74 216 2.0 7.0 0.00 0.00 0.00 76 1015.4
20260831123032 72 200 4.0 7.0 0.00 0.00 0.00 78 1015.1
20260831121532 71 209 3.0 6.0 0.00 0.00 0.00 79 1014.9
20260831120033 71 215 4.0 7.0 0.00 0.00 0.00 79 1014.8
20260831114532 71 204 2.0 6.0 0.00 0.00 0.00 80 1014.7
20260831113030 71 211 2.0 6.0 0.00 0.00 0.00 80 1014.7
20260831111530 70 214 3.0 5.0 0.00 0.00 0.00 81 1014.6
20260831110028 70 185 1.0 5.0 0.00 0.00 0.00 82 1014.4
20260831104535 70 182 2.0 5.0 0.00 0.00 0.00 82 1014.5
20260831103027 70 181 2.0 4.0 0.00 0.00 0.00 82 1014.5
20260831101527 70 183 1.0 6.0 0.00 0.00 0.00 81 1014.4
20260831100033 70 186 3.0 6.0 0.00 0.00 0.00 81 1014.4